Terug naar catalogus

IRIDIUM 178

ActiefCommunicatiePO
NORAD 56729·PAYLOAD·🇺🇸 United States

Gelanceerd May 20, 2023 vanaf Vandenberg Space Force Base

Loading…

Volgende Passages (komende 24 uur)

TLE

VersSource: CelesTrak SupGP

Epoch: Sep 14, 2026, 22:02 UTC

1 56729C 23068V   26257.91840278 -.00001911  00000+0 -25313-3 0  2576
2 56729  86.6594 347.8896 0002605  96.1702  31.8278 14.80040278    16

Volg IRIDIUM 178 in realtime met AllMySat

Download on the App Store